Probability
0 0 0 0 0 0 0 0 0 0 0 0 0 0 1 2 2 3 2 1 0 0 0 0 0 0 0 0 0 0 0 0 0 0 0 0 0 0 0 0 0 0 0
0 0 0 0 0 0 0 0 0 0 0 0 0 0 0 1 1 2 1 0 0 0 0 0 0 0 0 0 0 0 0 0 0 0 0 0 0 0 0 0 0 0 0
0 0 0 0 0 0 0 0 0 0 0 0 0 0 0 0 0 0 0 0 0 0 0 0 0 0 0 0 0 0 0 0 0 0 0 0 0 0 0 0 0 0 0
0 0 0 0 0 0 0 0 0 0 0 0 0 0 0 0 0 0 0 0 0 0 0 0 0 0 0 0 0 0 0 0 0 0 0 0 0 0 0 0 0 0 0
0 0 0 0 0 0 0 0 0 0 0 0 0 0 0 0 0 0 0 0 0 0 0 0 0 0 0 0 0 0 0 0 0 0 0 0 0 0 0 0 0 0 0
0 0 0 0 0 0 0 0 0 0 0 0 0 0 0 0 0 0 0 0 0 0 0 0 0 0 0 0 0 0 0 0 0 0 0 0 0 0 0 0 0 0 0
0 0 0 0 0 0 0 0 0 0 0 0 0 0 0 0 0 0 0 0 0 0 0 0 0 0 0 0 0 0 0 0 0 0 0 0 0 0 0 0 0 0 0
0 0 0 0 0 0 0 0 0 0 0 0 0 0 0 0 0 0 0 0 0 0 0 0 0 0 0 0 0 0 0 0 0 0 0 0 0 0 1 1 1 0 0
0 0 0 0 0 0 0 0 0 0 0 0 0 0 0 0 0 0 0 0 0 0 0 0 0 0 0 0 0 0 0 0 0 0 0 0 0 0 1 2 2 1 0
0 0 0 0 0 0 0 0 0 0 0 0 0 0 0 0 0 0 0 0 0 0 0 0 0 0 0 0 0 0 0 0 0 0 0 0 0 0 1 1 2 2 1
0 0 0 0 0 0 0 0 0 0 0 0 0 0 0 0 0 0 0 0 0 0 0 0 0 0 0 0 0 0 0 0 0 0 0 0 0 0 0 0 1 2 2
0 0 0 0 0 0 0 0 0 0 0 0 0 0 0 0 0 0 0 0 0 0 0 0 0 0 0 0 0 0 0 0 0 0 0 0 0 0 0 0 0 1 1
0 0 0 0 0 0 0 0 0 0 0 0 0 0 0 0 0 0 0 0 0 0 0 0 0 0 0 0 0 0 0 0 0 0 0 0 0 0 0 0 0 0 1
0 0 0 0 0 0 0 0 0 0 0 0 0 0 0 0 0 0 0 0 0 0 0 0 0 0 0 0 0 0 0 0 0 0 0 0 0 0 0 0 0 1 2
0 0 0 0 0 0 0 0 0 0 0 0 0 0 0 0 0 0 0 0 0 0 0 0 0 0 0 0 0 0 0 0 0 0 0 0 0 0 0 0 0 1 2
0 0 0 0 0 0 0 0 0 0 0 0 0 0 0 0 0 0 0 0 0 0 0 0 0 0 0 0 0 0 0 0 0 0 0 0 0 0 0 0 0 0 1
0 0 0 0 0 0 0 0 0 0 0 0 0 0 0 0 0 0 0 0 0 0 0 0 0 0 0 0 0 0 0 0 0 0 0 0 0 0 0 0 0 0 0
0 0 0 0 0 0 0 0 0 0 0 0 0 0 0 0 0 0 0 0 0 0 0 0 0 0 0 0 0 0 0 0 0 0 0 0 0 0 0 0 0 0 0
0 0 0 0 0 0 0 0 0 0 0 0 0 0 0 0 0 0 0 0 0 0 0 0 0 0 0 0 0 0 0 0 0 0 0 0 0 0 0 0 0 0 0
0 0 0 0 0 0 0 0 0 0 0 0 0 0 0 0 0 0 0 0 0 0 0 0 0 0 0 0 0 0 0 0 0 0 0 0 0 0 0 0 0 0 0
0 0 0 0 0 0 0 0 0 0 0 0 0 0 0 0 0 0 0 0 0 0 0 0 0 0 0 0 0 0 0 0 0 0 0 0 0 0 0 0 0 0 0
0 0 0 0 0 0 0 0 0 0 0 0 0 0 0 0 0 0 0 0 0 0 0 0 0 0 0 0 0 0 0 0 0 0 0 0 0 0 0 0 0 0 0
0 0 0 0 0 0 0 0 0 0 0 0 0 0 0 0 0 0 0 0 0 0 0 0 0 0 0 0 0 0 0 0 0 0 0 0 0 0 0 0 0 0 0
0 0 0 0 0 0 0 0 0 0 0 0 0 0 0 0 0 0 0 0 0 0 0 0 0 0 0 0 0 0 0 0 0 0 0 0 0 0 0 0 0 0 0
0 0 0 0 0 0 0 0 0 0 0 0 0 0 0 0 0 0 0 0 0 0 0 0 0 0 0 0 0 0 0 0 0 0 0 0 0 0 0 0 0 0 0
0 0 0 0 0 0 0 0 0 0 0 0 0 0 0 0 0 0 0 0 0 0 0 0 0 0 0 0 0 0 0 0 0 0 0 0 0 0 0 0 0 0 0
Wind_Speed
1 1 4 8 10 11 12 12 13 13 13 13 12 12 12 12 11 11 10 9 9 9 8 8 8 8 8 7 7 6 6 6 6 6 6 5 5 4 4 4 4 2 3
1 1 6 9 11 11 12 13 13 13 13 12 12 12 11 11 10 10 9 9 8 8 8 8 7 7 7 6 6 6 6 6 6 5 6 5 5 4 4 4 3 2 3
4 3 5 9 11 11 12 12 12 12 12 12 11 11 11 10 9 9 9 8 8 8 8 8 7 7 6 6 6 6 6 6 6 6 6 4 3 4 3 3 3 3 3
5 4 5 9 11 11 12 12 12 12 11 11 10 10 9 9 9 9 9 8 8 8 8 7 7 6 6 6 6 6 5 5 6 6 4 3 3 3 4 3 3 3 3
5 4 5 10 10 11 11 11 11 11 11 10 10 9 9 9 9 9 8 8 7 7 7 7 7 6 6 6 6 5 5 5 6 6 3 3 3 3 3 3 2 2 2
5 4 5 9 10 10 11 11 11 10 9 9 9 9 8 8 7 7 7 7 7 7 7 7 6 6 7 6 5 5 5 5 5 3 3 3 2 3 3 3 2 2 2
4 3 4 9 10 10 10 10 9 9 8 8 8 8 7 7 7 7 6 6 6 6 6 6 6 6 6 6 5 5 5 5 4 2 2 2 2 3 3 3 3 3 3
4 4 4 8 9 9 9 8 8 8 8 7 7 7 7 7 6 7 6 6 6 6 6 6 6 6 6 6 6 5 5 5 4 3 2 2 3 3 3 3 3 3 3
4 4 4 4 5 7 8 7 7 7 7 7 7 6 6 7 7 7 7 6 6 7 6 6 6 6 6 6 5 5 6 6 4 2 2 2 3 4 3 3 4 4 4
4 4 3 4 4 4 4 6 7 7 7 7 7 7 8 8 8 8 8 7 7 7 6 6 6 7 7 7 6 6 7 6 3 3 2 3 4 4 4 4 4 4 4
2 2 2 3 3 3 3 5 6 7 8 8 7 9 7 4 4 5 7 9 8 8 7 7 7 7 7 7 7 7 6 3 3 3 2 4 5 6 6 5 5 5 5
1 1 1 2 2 3 3 4 3 4 4 4 4 4 3 3 4 5 8 10 10 10 9 9 9 8 6 3 5 6 3 3 3 3 3 5 6 6 7 7 6 5 5
1 1 1 1 2 2 2 2 2 2 3 3 4 4 3 3 3 4 3 5 6 7 5 6 6 4 4 3 3 3 3 3 3 3 4 7 7 7 7 7 6 6 6
2 1 1 2 2 2 2 2 2 2 2 2 3 4 3 3 3 3 3 3 3 3 3 4 3 4 5 4 4 4 4 3 3 3 4 9 9 8 8 8 7 7 7
2 1 1 2 3 2 2 2 2 2 2 2 3 3 3 2 3 3 2 3 3 3 3 3 3 4 5 5 4 5 5 4 4 4 4 10 11 10 9 9 9 9 9
3 2 1 2 3 3 2 2 2 2 2 3 3 3 3 3 2 3 3 3 3 3 3 3 3 4 3 4 5 5 5 4 5 5 5 7 12 12 11 11 10 10 10
3 2 2 3 3 4 3 3 3 2 3 3 3 3 4 3 3 3 3 3 3 3 3 3 4 4 4 5 5 5 5 5 5 6 6 5 6 11 13 13 12 12 12
4 3 3 4 5 4 4 3 3 3 3 3 3 3 4 4 4 3 3 3 3 3 3 3 3 4 4 4 4 5 5 5 6 6 6 6 5 5 9 13 13 13 13
4 4 4 4 5 4 4 4 4 3 4 3 3 3 3 4 4 4 3 3 3 3 3 3 4 3 3 4 4 5 5 5 5 7 7 7 6 6 5 9 13 14 14
4 4 4 4 5 5 4 3 3 4 4 3 3 3 4 4 4 4 3 4 4 4 4 3 4 4 3 3 5 5 5 5 5 6 6 6 6 7 7 7 7 9 14
3 4 4 4 4 3 2 2 2 2 2 3 3 4 4 4 4 4 4 4 4 4 3 3 3 5 4 2 3 4 4 5 6 6 5 5 7 6 7 7 6 5 6
4 4 3 4 4 3 2 2 2 2 1 1 2 4 5 4 4 4 4 3 3 3 5 4 3 2 3 3 2 3 3 4 5 6 5 6 6 5 7 8 7 7 6
4 5 4 4 3 3 3 3 3 3 3 3 3 3 4 4 4 4 4 4 4 4 3 4 3 3 2 3 3 3 3 1 1 3 5 5 5 5 5 5 7 7 7
5 4 4 4 3 3 4 4 4 2 1 0 0 1 2 3 3 4 4 4 4 3 3 3 3 2 3 2 3 3 2 3 3 1 3 4 5 6 5 5 6 6 6
5 4 4 3 3 3 3 4 4 3 1 0 1 2 2 3 3 3 4 4 4 3 4 4 4 4 3 3 2 2 3 3 3 3 1 3 3 3 4 4 4 4 5
4 4 4 4 3 3 3 3 4 4 3 2 1 1 1 2 2 3 3 3 3 3 4 4 4 5 4 4 3 2 2 2 1 2 2 1 2 2 3 3 4 4 4
Wind_Direction
345 330 92 93 91 91 92 91 90 90 89 88 88 87 85 84 81 78 76 75 75 72 68 67 66 68 67 68 65 62 63 62 62 66 62 59 59 62 70 77 83 78 84
123 85 98 96 94 92 92 92 91 89 88 87 86 84 82 82 80 77 74 71 70 70 66 64 65 64 63 64 63 60 63 62 59 57 54 46 46 50 61 77 85 86 75
102 92 95 98 95 91 92 91 89 87 86 85 83 81 80 79 77 76 73 70 67 65 62 58 58 57 56 55 53 53 58 58 53 52 48 29 19 43 53 56 62 73 64
102 90 95 98 95 92 90 89 86 84 82 81 80 79 78 76 74 73 71 68 64 60 56 52 52 50 47 46 46 45 50 52 48 49 40 19 7 39 46 52 52 55 58
89 80 96 96 94 92 90 89 88 86 82 77 74 72 70 70 70 70 66 63 61 56 52 47 44 41 40 42 44 43 48 53 49 46 33 17 359 19 36 49 56 49 50
85 77 97 97 94 93 90 87 86 84 80 76 72 70 68 66 65 63 61 56 54 50 47 41 37 38 38 39 43 43 50 56 49 41 27 7 351 13 26 41 57 54 53
90 79 94 98 95 92 89 87 85 81 77 72 68 64 61 57 55 54 51 48 45 43 40 37 35 35 35 35 38 43 48 56 56 38 18 354 351 17 27 32 44 55 54
96 75 72 93 95 90 87 83 79 74 70 65 60 55 48 43 41 41 40 38 34 33 33 36 35 33 32 33 41 46 47 47 45 32 7 348 356 22 25 29 40 51 52
82 70 50 51 64 75 80 77 73 68 62 56 50 45 38 31 28 30 29 29 28 30 34 37 35 34 32 34 43 50 53 54 49 15 4 349 7 24 30 39 51 56 52
73 68 57 47 44 39 41 61 65 59 52 48 43 40 35 27 21 20 19 17 21 28 36 37 38 39 38 39 48 58 57 49 35 16 356 350 19 36 49 58 62 59 55
77 58 65 50 39 36 31 44 42 41 39 38 31 32 34 21 13 9 12 19 23 32 41 42 46 45 44 40 50 58 54 40 31 14 346 2 29 47 53 62 65 62 57
133 97 85 67 45 35 37 38 25 29 28 31 25 22 23 21 15 24 17 25 29 37 41 42 49 46 46 38 45 55 48 38 29 10 359 21 37 51 56 60 63 62 55
165 153 121 96 64 58 48 43 28 22 27 27 26 26 31 31 22 22 19 18 19 31 30 30 35 34 40 45 49 49 48 40 25 10 6 26 40 53 57 58 58 56 52
136 151 119 108 90 70 67 57 42 34 34 31 25 33 41 35 27 18 22 14 20 20 26 28 30 34 44 47 54 51 44 37 28 15 13 29 37 45 52 55 54 52 52
139 128 94 109 108 92 76 61 57 40 38 37 34 32 46 50 34 26 21 22 22 25 35 32 33 40 43 44 51 51 41 33 31 29 18 32 38 41 48 53 57 56 56
150 138 94 101 114 106 90 75 58 46 42 46 42 34 42 49 48 43 33 28 24 24 35 45 44 47 45 48 47 44 41 34 34 35 34 31 37 40 42 46 53 57 57
145 134 123 119 104 102 92 75 64 47 49 50 40 36 43 45 46 50 44 31 16 20 41 49 44 47 51 51 43 38 40 36 37 38 38 34 28 35 40 45 49 51 53
141 134 131 117 102 95 87 75 64 52 51 43 38 38 42 45 51 54 49 28 13 31 44 56 46 55 50 52 49 38 37 36 37 40 41 37 32 28 33 44 46 47 47
144 136 117 109 108 99 86 73 63 56 48 36 35 37 38 44 48 57 49 27 27 45 40 54 51 59 61 59 64 51 40 40 35 41 42 38 36 34 33 38 43 43 43
134 128 123 111 106 102 87 71 56 47 37 33 32 31 38 42 45 54 49 31 37 52 42 49 61 55 57 54 71 60 45 40 40 39 37 36 36 38 38 38 33 34 40
131 127 133 128 125 116 96 85 73 46 21 25 28 32 36 42 46 54 51 38 39 54 51 53 70 64 45 28 70 50 32 38 42 36 32 36 34 33 38 40 36 33 30
155 147 144 149 149 143 117 115 114 107 62 36 16 30 28 37 42 55 54 51 44 56 50 43 56 78 47 30 83 86 37 15 16 24 28 37 31 29 36 40 36 34 30
171 172 166 167 161 148 125 105 80 56 38 26 16 13 8 29 45 53 55 58 52 58 59 48 52 82 83 38 45 107 118 128 356 2 21 32 30 32 26 28 35 30 28
189 174 163 162 160 152 143 137 133 126 117 307 334 4 13 29 44 50 57 59 56 54 57 52 57 68 93 72 44 44 83 131 120 52 358 10 29 34 25 27 26 26 24
178 167 162 151 153 156 153 149 134 125 133 102 50 49 28 20 31 44 55 60 57 54 56 56 57 59 68 85 79 71 66 59 72 112 65 350 5 11 18 18 20 20 19
166 160 158 154 161 162 156 153 152 152 152 134 107 73 26 13 18 31 54 59 61 59 58 59 63 65 66 74 70 67 87 95 89 102 114 45 356 336 354 10 18 12 12